Chehalis, WA
on Saturday, November 10, 2012

Saturday
Previous Day Next Day
Daily Summary
 ActualAverage (KOLM)Record (KOLM)
Temperature
Mean Temperature °F 45°F  
Max Temperature 46°F 52°F 62°F (1954)
Min Temperature 26°F 38°F 20°F (2012)
Degree Days
Heating Degree Days 29 20  
Month to date heating degree days 194  
Since 1 July heating degree days 988  
Cooling Degree Days 0 0  
Month to date cooling degree days 0  
Year to date cooling degree days 106  
Moisture
Dew Point 31°F   
Average Humidity 91    
Maximum Humidity 100    
Minimum Humidity 57    
Precipitation
Precipitation 0.01 in 0.29 in 1.90 in (1962)
Month to date precipitation 2.58  
Year to date precipitation 36.49  
Wind
Wind Speed 1 mph   
Max Wind Speed 6 mph   
Max Gust Speed mph   
Visibility 7 miles   
Events Fog   

Key: T is trace of precipitation, MM is missing value
Source: NWS Daily Summary
Time(PST)TemperatureDew PointHumidity Pressure Visibility Wind DirectionWind SpeedGust SpeedPrecipitationEvents Conditions
2:15 AM 28.4°F 28.4°F 100% 30.01 in 0.2 miles Calm Calm - N/A Fog Light Freezing Fog
2:35 AM 28.4°F 28.4°F 100% 30.01 in 0.2 miles Calm Calm - N/A Fog Light Freezing Fog
2:55 AM 28.4°F 28.4°F 100% 30.01 in 0.2 miles Calm Calm - N/A Fog Light Freezing Fog
3:15 AM 28.4°F 28.4°F 100% 30.01 in 0.2 miles Calm Calm - N/A Fog Light Freezing Fog
3:35 AM 28.4°F 26.6°F 93% 30.02 in 0.2 miles Calm Calm - N/A Fog Light Freezing Fog
3:55 AM 28.4°F 26.6°F 93% 30.02 in 0.5 miles SSW 3.5 mph - N/A Fog Light Freezing Fog
4:15 AM 26.6°F 26.6°F 100% 30.02 in 0.2 miles Calm Calm - N/A Fog Light Freezing Fog
4:35 AM 26.6°F 26.6°F 100% 30.03 in 0.5 miles WSW 3.5 mph - N/A Fog Light Freezing Fog
4:55 AM 26.6°F 26.6°F 100% 30.04 in 0.5 miles SSW 3.5 mph - N/A Fog Light Freezing Fog
5:15 AM 26.6°F 26.6°F 100% 30.05 in 0.5 miles SW 3.5 mph - N/A Fog Light Freezing Fog
5:35 AM 26.6°F 26.6°F 100% 30.05 in 3.0 miles Calm Calm - N/A   Mist
5:55 AM 26.6°F 26.6°F 100% 30.05 in 10.0 miles Calm Calm - N/A   Unknown
6:15 AM 26.6°F 26.6°F 100% 30.06 in 10.0 miles Calm Calm - N/A   Unknown
6:35 AM 26.6°F 26.6°F 100% 30.06 in 10.0 miles SW 3.5 mph - N/A   Unknown
6:55 AM 28.4°F 26.6°F 93% 30.07 in 8.0 miles Calm Calm - N/A   Unknown
7:15 AM 28.4°F 26.6°F 93% 30.07 in 10.0 miles Calm Calm - N/A   Unknown
7:35 AM 28.4°F 26.6°F 93% 30.08 in 10.0 miles Calm Calm - N/A   Unknown
7:55 AM 28.4°F 26.6°F 93% 30.09 in 9.0 miles Calm Calm - N/A   Unknown
8:15 AM 28.4°F 28.4°F 100% 30.10 in 9.0 miles Calm Calm - N/A   Unknown
8:35 AM 28.4°F 28.4°F 100% 30.10 in 10.0 miles SW 3.5 mph - N/A   Unknown
8:55 AM 30.2°F 30.2°F 100% 30.11 in 8.0 miles SW 3.5 mph - N/A   Unknown
9:15 AM 32.0°F 30.2°F 93% 30.10 in 8.0 miles SSW 4.6 mph - N/A   Unknown
9:35 AM 32.0°F 32.0°F 100% 30.11 in 10.0 miles Calm Calm - N/A   Unknown
9:55 AM 32.0°F 32.0°F 100% 30.12 in 9.0 miles Calm Calm - N/A   Unknown
10:15 AM 32.0°F 32.0°F 100% 30.12 in 10.0 miles Calm Calm - N/A   Unknown
10:35 AM 33.8°F 32.0°F 93% 30.13 in 9.0 miles Calm Calm - N/A   Unknown
10:55 AM 35.6°F 33.8°F 93% 30.13 in 7.0 miles Calm Calm - N/A   Unknown
11:15 AM 37.4°F 35.6°F 93% 30.13 in 10.0 miles Calm Calm - N/A   Unknown
11:35 AM 39.2°F 35.6°F 87% 30.14 in 10.0 miles SW 3.5 mph - N/A   Unknown
11:55 AM 39.2°F 35.6°F 87% 30.14 in 5.0 miles SSW 4.6 mph - N/A   Haze
12:15 PM 41.0°F 35.6°F 81% 30.14 in 10.0 miles South 4.6 mph - 0.01 in   Unknown
12:35 PM 41.0°F 33.8°F 76% 30.15 in 9.0 miles Calm Calm - 0.01 in   Unknown
12:55 PM 44.6°F 32.0°F 61% 30.15 in 10.0 miles Calm Calm - 0.01 in   Unknown
1:15 PM 44.6°F 32.0°F 61% 30.15 in 10.0 miles Calm Calm - N/A   Unknown
1:35 PM 46.4°F 32.0°F 57% 30.15 in 10.0 miles South 4.6 mph - N/A   Unknown
2:15 PM 44.6°F 32.0°F 61% 30.14 in 10.0 miles SSW 5.8 mph - N/A   Unknown
2:35 PM 46.4°F 32.0°F 57% 30.14 in 10.0 miles South 5.8 mph - N/A   Unknown
3:15 PM 44.6°F 32.0°F 61% 30.15 in 10.0 miles South 4.6 mph - N/A   Unknown
3:35 PM 44.6°F 32.0°F 61% 30.16 in 10.0 miles SSW 4.6 mph - N/A   Unknown
3:55 PM 44.6°F 32.0°F 61% 30.16 in 10.0 miles SSW 4.6 mph - N/A   Unknown
4:15 PM 42.8°F 32.0°F 66% 30.17 in 10.0 miles SSW 3.5 mph - N/A   Unknown
4:35 PM 39.2°F 33.8°F 81% 30.17 in 10.0 miles Calm Calm - N/A   Unknown
4:55 PM 37.4°F 32.0°F 81% 30.17 in 10.0 miles Calm Calm - N/A   Unknown
5:15 PM 35.6°F 33.8°F 93% 30.17 in 10.0 miles Calm Calm - N/A   Unknown
5:35 PM 35.6°F 32.0°F 87% 30.18 in 10.0 miles Calm Calm - N/A   Unknown
5:55 PM 32.0°F 32.0°F 100% 30.19 in 10.0 miles Calm Calm - N/A   Unknown
6:15 PM 32.0°F 32.0°F 100% 30.19 in 10.0 miles NNW 3.5 mph - N/A   Unknown
6:35 PM 32.0°F 32.0°F 100% 30.20 in 8.0 miles Calm Calm - N/A   Unknown
6:55 PM 32.0°F 32.0°F 100% 30.20 in 5.0 miles Calm Calm - N/A   Mist
7:15 PM 32.0°F 32.0°F 100% 30.20 in 5.0 miles Calm Calm - N/A   Mist
7:35 PM 32.0°F 32.0°F 100% 30.21 in 6.0 miles Calm Calm - N/A   Mist
7:55 PM 32.0°F 30.2°F 93% 30.21 in 5.0 miles Calm Calm - N/A   Mist
8:15 PM 32.0°F 30.2°F 93% 30.21 in 5.0 miles Calm Calm - N/A   Mist
8:35 PM 32.0°F 30.2°F 93% 30.21 in 5.0 miles Calm Calm - N/A   Mist
8:55 PM 32.0°F 30.2°F 93% 30.22 in 5.0 miles Calm Calm - N/A   Mist
9:15 PM 32.0°F 32.0°F 100% 30.22 in 4.0 miles Calm Calm - N/A   Mist
9:35 PM 32.0°F 30.2°F 93% 30.22 in 3.0 miles Calm Calm - N/A   Mist
10:15 PM 32.0°F 32.0°F 100% 30.23 in 8.0 miles SW 3.5 mph - N/A   Unknown
10:55 PM 32.0°F 32.0°F 100% 30.23 in 5.0 miles Calm Calm - N/A   Mist
11:15 PM 32.0°F 32.0°F 100% 30.23 in 5.0 miles WSW 3.5 mph - N/A   Mist
11:35 PM 32.0°F 32.0°F 100% 30.23 in 5.0 miles Calm Calm - N/A   Mist
11:55 PM 32.0°F 32.0°F 100% 30.23 in 9.0 miles SSW 4.6 mph - N/A   Unknown
Moon Phase
Nov. 10 Nov. 13 Nov. 20 Nov. 28 Dec. 06
Sunrise:07:07 AM (PST) Moon Rise:03:07 AM (PST)11/10
Sunset:04:43 PM (PST) Moon Set:02:43 PM (PST)11/10

Copyright © 2014 The Weather Underground, Inc.